This is the latest recevied weather packets stored in our database for station/object EA1HTW-1. If no packets are shown the sender has not sent any weather packets the latest 10 day(s).
| Time | Temp. | Humidity | Pressure | Rain* | Wind** | Luminosity | Snow |
|---|---|---|---|---|---|---|---|
| 1778032168 | 7.78° C | 96% | 987.9 hPa | 0 mm | - | - | - |
| 1778031566 | 7.78° C | 95% | 988 hPa | 0 mm | - | - | - |
| 1778031046 | 8.33° C | 95% | 988.2 hPa | 0 mm | - | - | - |
| 1778030967 | 8.33° C | 95% | 988.2 hPa | 0 mm | - | - | - |
| 1778030367 | 8.33° C | 95% | 988.3 hPa | 0 mm | - | - | - |
| 1778029768 | 7.78° C | 95% | 988.3 hPa | 0 mm | - | - | - |
| 1778028566 | 8.33° C | 95% | 988.5 hPa | 0 mm | - | - | - |
| 1778027965 | 8.33° C | 95% | 988.6 hPa | 0 mm | - | - | - |
| 1778027367 | 7.78° C | 95% | 988.6 hPa | 0 mm | - | - | - |
| 1778026766 | 8.33° C | 95% | 988.8 hPa | 0 mm | - | - | - |
| 1778026166 | 8.33° C | 95% | 988.9 hPa | 0 mm | - | - | - |
| 1778025566 | 8.33° C | 95% | 988.9 hPa | 0 mm | - | - | - |
| 1778024968 | 8.33° C | 94% | 988.8 hPa | 0 mm | - | - | - |
| 1778022566 | 8.89° C | 94% | 988.8 hPa | 0 mm | - | - | - |
| 1778021965 | 8.89° C | 94% | 988.7 hPa | 0 mm | - | - | - |
| 1778021366 | 8.89° C | 93% | 988.7 hPa | 0 mm | - | - | - |
| 1778020765 | 8.89° C | 93% | 988.7 hPa | 0 mm | - | - | - |
| 1778019566 | 10° C | 92% | 988.9 hPa | 0 mm | - | - | - |
| 1778018965 | 9.44° C | 91% | 988.8 hPa | 0 mm | - | - | - |
| 1778018405 | 10° C | 91% | 988.7 hPa | 0 mm | - | - | - |
| 1778018365 | 10° C | 91% | 988.7 hPa | 0 mm | - | - | - |
| 1778017766 | 10° C | 91% | 988.7 hPa | 0 mm | - | - | - |
| 1778015966 | 11.11° C | 88% | 988.7 hPa | 0 mm | - | - | - |
| 1778015365 | 11.11° C | 88% | 988.7 hPa | 0 mm | - | - | - |
| 1778014166 | 11.67° C | 88% | 988.6 hPa | 0 mm | - | - | - |
* Rain latest hour (hover to see other rain measurements)
** Current wind speed in m/s (hover to see current wind gust speed)